Weather Roundup
Issued by NWS Springfield, MO

Home | Current Version | Previous Version | Text Only | Print | Product List | Glossary Off
Versions: 1 2 3 4 5 6 7 8 9 10 11 12 13 14 15 16 17 18 19 20 21 22 23 24 25 26 27 28 29 30 31 32 33 34 35 36 37 38 39 40 41 42 43 44 45 46 47 48 49 50

000
NZUS99 KSGF 251707
HRRSGF

HOURLY WEATHER
NATIONAL WEATHER SERVICE SPRINGFIELD MO
1100 AM CST THU DEC 25 2014

......SGF CWA......

CITY           SKY/WX    TMP DP  RH WIND       PRES   REMARKS
SPRINGFIELD    SUNNY     44  31  60 S20       29.96S
JOPLIN         SUNNY     49  27  42 S25G32    29.89F
WEST PLAINS    SUNNY     43  31  62 S13       30.05S
ROLLA          SUNNY     43  31  62 S14       29.97F
OSAGE BEACH    MOSUNNY   45  30  57 S14       29.97S
BRANSON        MOSUNNY   48  27  43 S13G18    30.02S

......SURROUNDING SGF CWA......

CITY           SKY/WX    TMP DP  RH WIND       PRES   REMARKS
CHANUTE        SUNNY     47  30  51 S24G31    29.81F
PARSONS        SUNNY     49  29  46 S18G30    29.84F
COFFEYVILLE    SUNNY     49  29  46 S29G39    29.85F
EMPORIA        SUNNY     44  29  55 S25G41    29.70F
GROVE OK       SUNNY     50  32  50 S15G23    29.93F
ROGERS AR      SUNNY     47  28  47 S21G26    29.96F
SILOAM SPRINGS SUNNY     46  28  49 S21G28    29.96F
HARRISON AR    SUNNY     46  30  53 S12       30.02F
NEAR YELLVILLE SUNNY     46  30  53 SW12G17   30.05F

......KANSAS AND MISSOURI......

CITY           SKY/WX    TMP DP  RH WIND       PRES   REMARKS
KANSAS CTY INT MOSUNNY   44  30  57 S21G32    29.78S
DOWNTOWN KC    SUNNY     46  30  53 S14G25    29.81F
COLUMBIA       SUNNY     43  33  68 S15       29.95F
SEDALIA        MOSUNNY   46  30  53 S20G28    29.90F
ST JOSEPH      SUNNY     45  30  55 S17       29.77F
ST LOUIS       MOSUNNY   47  32  56 S8        30.04F
SPIRIT OF STL  SUNNY     45  32  60 S9        30.02F
KIRKSVILLE     MOSUNNY   43  31  62 S18G26    29.87F
WICHITA        MOSUNNY   47  27  45 S21G32    29.66F
TOPEKA         SUNNY     47  28  47 S17G26    29.75F
OLATHE         SUNNY     44  30  57 S20G32    29.80F

......TENNESSEE......

CITY           SKY/WX    TMP DP  RH WIND       PRES   REMARKS
MEMPHIS        MOSUNNY   48  35  60 S13       30.19F
NASHVILLE      CLOUDY    43  33  68 VRB6      30.23R

......ARKANSAS.......

CITY           SKY/WX    TMP DP  RH WIND       PRES   REMARKS
FAYETTEVILLE   SUNNY     46  30  53 S18G28    29.98F
FT SMITH       SUNNY     45  34  65 VRB5      30.04F
LITTLE ROCK    MOSUNNY   51  32  48 SW13      30.14F

......OKLAHOMA.......

CITY           SKY/WX    TMP DP  RH WIND       PRES   REMARKS
TULSA          PTSUNNY   49  27  42 S26G38    29.87S
PONCA CITY     PTSUNNY   48  26  42 S15G24    29.77R
MCALESTER      PTSUNNY   51  27  39 S18G30    29.98F
OKLAHOMA CITY  CLOUDY    50  25  37 S24G30    29.83R

......IOWA............

CITY           SKY/WX    TMP DP  RH WIND       PRES   REMARKS
DES MOINES     PTSUNNY   41  30  65 S14       29.77S
QUAD CITIES    MOSUNNY   40  31  70 S8G21     29.91R WCI  34

......ILLINOIS........

CITY           SKY/WX    TMP DP  RH WIND       PRES   REMARKS
QUINCY         SUNNY     41  32  70 S13       29.93F
CHICAGO        PTSUNNY   36  27  69 SW17G24   29.95S WCI  26



USA.gov is the U.S. government's official web portal to all federal, state and local government web resources and services.